CET,Max TemperatureF,Mean TemperatureF,Min TemperatureF,Max Dew PointF,MeanDew PointF,Min DewpointF,Max Humidity, Mean Humidity, Min Humidity, Max Sea Level PressureIn, Mean Sea Level PressureIn, Min Sea Level PressureIn, Max VisibilityMiles, Mean VisibilityMiles, Min VisibilityMiles, Max Wind SpeedMPH, Mean Wind SpeedMPH, Max Gust SpeedMPH,PrecipitationIn, CloudCover, Events, WindDirDegrees
2012-10-1,78,66,55,61,58,55,100,82,54,30.15,30.06,30.01,6,5,4,11,2,,0.00,6,Rain,183
2012-10-2,60,58,53,59,57,52,100,94,88,30.09,30.06,30.04,6,4,1,9,3,,0.00,7,Fog-Rain-Thunderstorm,349
2012-10-3,69,58,46,54,50,46,100,82,43,30.09,30.06,30.04,6,3,0,9,4,,0.00,1,Fog,224
2012-10-4,73,58,44,59,54,45,100,79,57,30.06,30.00,29.92,6,6,1,13,6,,0.00,6,Fog-Rain,177
2012-10-5,68,59,50,55,49,45,88,67,49,30.18,30.11,30.04,,,,18,8,27,0.00,,,144
2012-10-6,75,64,53,57,53,46,88,71,50,30.09,30.05,29.98,6,4,3,13,9,,0.00,3,Fog,184
2012-10-7,71,60,48,59,53,43,100,84,50,30.09,29.93,29.80,6,5,0,25,7,60,0.00,7,Fog-Rain-Thunderstorm,253
2012-10-8,57,47,37,43,40,36,100,76,44,30.21,30.13,30.04,6,6,6,16,8,34,0.00,3,,337
2012-10-9,62,52,42,46,40,37,87,64,39,30.04,29.90,29.83,6,5,4,18,8,29,0.00,8,Rain,185
2012-10-10,55,48,42,50,40,36,93,71,47,29.98,29.95,29.92,6,6,5,11,6,,0.00,7,Rain,305
2012-10-11,57,45,33,46,40,34,100,85,41,30.04,29.99,29.95,6,3,0,4,3,,0.00,4,Fog,182
2012-10-12,59,54,48,48,45,41,93,74,55,29.98,29.94,29.92,6,6,6,9,5,,0.00,7,,124
2012-10-13,57,52,48,50,45,37,94,77,48,30.06,29.98,29.89,6,6,3,13,3,,0.00,7,Rain,169
2012-10-14,59,55,51,52,49,46,94,82,72,29.86,29.79,29.74,6,6,6,16,4,,0.00,7,,185
2012-10-15,71,60,48,55,52,46,94,77,53,29.89,29.73,29.68,6,6,3,18,12,29,0.00,7,Rain,182
2012-10-16,48,47,46,46,45,43,100,95,82,30.01,29.88,29.80,6,4,2,16,9,,0.00,7,Rain,328
2012-10-17,62,52,42,52,49,43,100,88,68,30.15,30.11,30.01,6,4,1,13,7,22,0.00,5,,188
2012-10-18,71,63,55,54,50,48,82,67,46,30.15,30.11,30.09,3,3,3,20,11,31,0.00,6,,165
2012-10-19,71,56,42,54,49,43,100,78,43,30.15,30.10,30.06,6,4,2,9,5,,0.00,3,Fog,164
2012-10-20,60,50,41,54,48,41,100,95,77,30.15,30.11,30.06,6,2,0,4,3,,0.00,3,Fog,355
2012-10-21,60,50,39,55,46,39,100,98,82,30.18,30.13,30.12,2,1,0,4,1,,0.00,3,Fog,345
2012-10-22,62,48,35,54,45,36,100,96,68,30.21,30.19,30.15,5,1,0,4,1,,0.00,3,Fog,319
2012-10-23,50,44,39,50,47,39,100,100,100,30.27,30.22,30.21,2,0,0,7,2,,0.00,6,Fog,333
2012-10-24,51,50,48,48,46,45,100,89,76,30.21,30.13,30.06,3,2,1,4,2,,0.00,7,,261
2012-10-25,50,46,41,46,44,41,100,89,82,30.06,29.96,29.89,5,3,1,4,3,,0.00,5,Fog,212
2012-10-26,53,48,42,50,46,43,100,93,77,29.89,29.79,29.56,5,3,1,11,6,,0.00,7,Fog-Rain,166
2012-10-27,64,50,35,57,49,36,100,93,73,29.53,29.32,29.12,6,4,1,22,9,34,0.00,7,Rain,203
2012-10-28,39,36,32,34,31,30,100,83,70,29.83,29.68,29.47,6,5,2,25,20,36,0.00,8,Rain-Snow,343
2012-10-29,35,34,32,34,32,30,100,95,81,29.89,29.86,29.83,6,4,1,20,8,31,0.00,7,Rain-Snow,332
2012-10-30,46,37,28,32,31,28,100,81,53,29.89,29.86,29.83,6,5,3,13,6,,0.00,4,,209
2012-10-31,55,44,32,39,35,30,93,76,54,29.86,29.83,29.71,6,5,3,20,8,27,0.00,3,Rain,164